• In United Kingdom
  • List of Countries
  • For 7 days
  • Water Temperature
  • Satellite Maps
  • Weather Map
  • Weather Widgets
  • user-avatar
    Login

    Hourly Weather Paro

    Today, 15 November, Thursday

    Time Temperature Precipitation Wind Pressure Humidity
    00:00 +5°C° 0 mm 2 mps 560 mmHg 89%
    01:00 +5°C° 0 mm 2 mps 559 mmHg 89%
    02:00 +5°C° 0 mm 2 mps 559 mmHg 89%
    03:00 +4°C° 0 mm 2 mps 559 mmHg 88%
    04:00 +4°C° 0 mm 2 mps 559 mmHg 88%
    05:00 +4°C° 0 mm 2 mps 559 mmHg 87%
    06:00 +4°C° 0 mm 2 mps 559 mmHg 84%
    07:00 +6°C° 0 mm 2 mps 560 mmHg 75%
    08:00 +8°C° 0 mm 2 mps 561 mmHg 66%
    09:00 +9°C° 0 mm 2 mps 562 mmHg 57%
    10:00 +10°C° 0 mm 2 mps 562 mmHg 54%
    11:00 +12°C° 0 mm 2 mps 562 mmHg 51%
    12:00 +12°C° 0 mm 3 mps 562 mmHg 49%
    13:00 +12°C° 0.1 mm 3 mps 562 mmHg 53%
    14:00 +11°C° 0.1 mm 3 mps 561 mmHg 58%
    15:00 +11°C° 0.1 mm 3 mps 561 mmHg 62%
    16:00 +9°C° 0 mm 2 mps 560 mmHg 72%
    17:00 +7°C° 0 mm 2 mps 559 mmHg 82%
    18:00 +5°C° 0 mm 2 mps 558 mmHg 91%
    19:00 +5°C° 0 mm 2 mps 558 mmHg 89%
    20:00 +5°C° 0 mm 2 mps 559 mmHg 88%
    21:00 +5°C° 0 mm 2 mps 559 mmHg 86%
    22:00 +4°C° 0 mm 2 mps 559 mmHg 84%
    23:00 +4°C° 0 mm 2 mps 559 mmHg 82%

    Tomorrow, 16 November, Friday

    Time Temperature Precipitation Wind Pressure Humidity
    00:00 +4°C° 0 mm 2 mps 559 mmHg 80%
    01:00 +4°C° 0 mm 2 mps 559 mmHg 78%
    02:00 +4°C° 0 mm 2 mps 558 mmHg 76%
    03:00 +4°C° 0 mm 2 mps 558 mmHg 73%
    04:00 +3°C° 0 mm 2 mps 558 mmHg 71%
    05:00 +3°C° 0 mm 2 mps 558 mmHg 68%
    06:00 +3°C° 0 mm 2 mps 558 mmHg 66%
    07:00 +6°C° 0 mm 2 mps 559 mmHg 60%
    08:00 +8°C° 0 mm 2 mps 561 mmHg 55%
    09:00 +12°C° 0 mm 2 mps 562 mmHg 49%
    10:00 +12°C° 0 mm 2 mps 562 mmHg 50%
    11:00 +12°C° 0 mm 3 mps 562 mmHg 50%
    12:00 +13°C° 0 mm 3 mps 562 mmHg 50%
    13:00 +12°C° 0 mm 3 mps 561 mmHg 57%
    14:00 +11°C° 0 mm 3 mps 560 mmHg 63%
    15:00 +11°C° 0 mm 3 mps 560 mmHg 70%
    16:00 +9°C° 0 mm 2 mps 559 mmHg 78%
    17:00 +8°C° 0 mm 2 mps 559 mmHg 85%
    18:00 +7°C° 0 mm 1 mps 558 mmHg 93%
    19:00 +7°C° 0 mm 1 mps 558 mmHg 92%
    20:00 +6°C° 0 mm 2 mps 559 mmHg 91%
    21:00 +6°C° 0 mm 2 mps 559 mmHg 90%
    22:00 +5°C° 0 mm 2 mps 559 mmHg 89%
    23:00 +5°C° 0 mm 2 mps 559 mmHg 89%

    Day after tomorrow, 17 November, Saturday

    Time Temperature Precipitation Wind Pressure Humidity
    00:00 +6°C° 0 mm 1 mps 559 mmHg 89%
    01:00 +4°C° 0 mm 2 mps 558 mmHg 88%
    02:00 +4°C° 0 mm 2 mps 558 mmHg 88%
    03:00 +4°C° 0 mm 2 mps 558 mmHg 88%
    04:00 +3°C° 0 mm 2 mps 557 mmHg 86%
    05:00 +3°C° 0 mm 2 mps 557 mmHg 85%
    06:00 +3°C° 0 mm 2 mps 557 mmHg 83%
    07:00 +5°C° 0 mm 2 mps 558 mmHg 72%
    08:00 +7°C° 0 mm 2 mps 560 mmHg 61%
    09:00 +9°C° 0 mm 2 mps 561 mmHg 51%
    10:00 +12°C° 0 mm 2 mps 561 mmHg 47%
    11:00 +12°C° 0 mm 3 mps 561 mmHg 44%
    12:00 +13°C° 0 mm 3 mps 561 mmHg 41%
    13:00 +12°C° 0 mm 3 mps 560 mmHg 46%
    14:00 +12°C° 0 mm 3 mps 560 mmHg 50%
    15:00 +11°C° 0 mm 3 mps 559 mmHg 55%
    16:00 +9°C° 0 mm 2 mps 558 mmHg 67%
    17:00 +7°C° 0 mm 2 mps 557 mmHg 79%
    18:00 +6°C° 0 mm 1 mps 557 mmHg 91%
    19:00 +5°C° 0 mm 1 mps 557 mmHg 88%
    20:00 +5°C° 0 mm 1 mps 558 mmHg 86%
    21:00 +5°C° 0 mm 1 mps 558 mmHg 83%
    22:00 +5°C° 0 mm 1 mps 558 mmHg 81%
    23:00 +5°C° 0 mm 1 mps 558 mmHg 79%

    18 November, Sunday

    Time Temperature Precipitation Wind Pressure Humidity
    00:00 +5°C° 0 mm 1 mps 558 mmHg 77%
    01:00 +5°C° 0 mm 1 mps 558 mmHg 76%
    02:00 +5°C° 0 mm 1 mps 558 mmHg 75%
    03:00 +4°C° 0 mm 1 mps 558 mmHg 73%
    04:00 +4°C° 0 mm 1 mps 558 mmHg 72%
    05:00 +4°C° 0 mm 1 mps 558 mmHg 72%
    06:00 +4°C° 0 mm 1 mps 558 mmHg 71%
    07:00 +6°C° 0 mm 1 mps 560 mmHg 64%
    08:00 +8°C° 0 mm 2 mps 561 mmHg 56%
    09:00 +10°C° 0 mm 2 mps 563 mmHg 49%
    10:00 +12°C° 0 mm 2 mps 563 mmHg 48%
    11:00 +13°C° 0 mm 2 mps 563 mmHg 47%
    12:00 +12°C° 0 mm 3 mps 563 mmHg 47%
    13:00 +12°C° 0 mm 3 mps 562 mmHg 51%
    14:00 +11°C° 0 mm 3 mps 561 mmHg 56%
    15:00 +11°C° 0 mm 3 mps 561 mmHg 60%
    16:00 +9°C° 0 mm 2 mps 560 mmHg 70%
    17:00 +7°C° 0 mm 2 mps 559 mmHg 81%
    18:00 +6°C° 0 mm 1 mps 559 mmHg 91%
    19:00 +6°C° 0 mm 1 mps 559 mmHg 89%
    20:00 +6°C° 0 mm 1 mps 560 mmHg 88%
    21:00 +6°C° 0 mm 1 mps 560 mmHg 86%
    22:00 +5°C° 0 mm 1 mps 560 mmHg 85%
    23:00 +5°C° 0 mm 1 mps 560 mmHg 85%

    19 November, Monday

    Time Temperature Precipitation Wind Pressure Humidity
    00:00 +5°C° 0 mm 1 mps 560 mmHg 84%
    01:00 +5°C° 0 mm 1 mps 559 mmHg 83%
    02:00 +5°C° 0 mm 1 mps 559 mmHg 82%
    03:00 +4°C° 0 mm 1 mps 559 mmHg 81%
    04:00 +4°C° 0 mm 1 mps 559 mmHg 79%
    05:00 +4°C° 0 mm 1 mps 559 mmHg 77%
    06:00 +4°C° 0 mm 1 mps 559 mmHg 75%
    07:00 +6°C° 0 mm 1 mps 561 mmHg 67%
    08:00 +9°C° 0 mm 1 mps 562 mmHg 58%
    09:00 +10°C° 0 mm 2 mps 564 mmHg 50%
    10:00 +12°C° 0 mm 2 mps 564 mmHg 48%
    11:00 +13°C° 0 mm 2 mps 564 mmHg 46%
    12:00 +13°C° 0 mm 3 mps 564 mmHg 45%
    13:00 +12°C° 0 mm 3 mps 563 mmHg 50%
    14:00 +12°C° 0 mm 3 mps 562 mmHg 55%
    15:00 +11°C° 0 mm 3 mps 561 mmHg 59%
    16:00 +9°C° 0 mm 2 mps 561 mmHg 70%
    17:00 +7°C° 0 mm 2 mps 560 mmHg 80%
    18:00 +6°C° 0 mm 1 mps 559 mmHg 90%
    19:00 +6°C° 0 mm 1 mps 560 mmHg 88%
    20:00 +6°C° 0 mm 1 mps 560 mmHg 86%
    21:00 +6°C° 0 mm 1 mps 561 mmHg 84%
    22:00 +6°C° 0 mm 1 mps 560 mmHg 83%
    23:00 +5°C° 0 mm 1 mps 560 mmHg 82%

    20 November, Tuesday

    Time Temperature Precipitation Wind Pressure Humidity
    00:00 +5°C° 0 mm 1 mps 560 mmHg 81%
    01:00 +5°C° 0 mm 1 mps 560 mmHg 79%
    02:00 +5°C° 0 mm 1 mps 559 mmHg 77%
    03:00 +3°C° 0 mm 2 mps 559 mmHg 75%
    04:00 +3°C° 0 mm 2 mps 559 mmHg 71%
    05:00 +3°C° 0 mm 2 mps 559 mmHg 68%
    06:00 +3°C° 0 mm 2 mps 559 mmHg 64%
    07:00 +6°C° 0 mm 2 mps 561 mmHg 56%
    08:00 +8°C° 0 mm 2 mps 563 mmHg 49%
    09:00 +12°C° 0 mm 1 mps 564 mmHg 42%
    10:00 +13°C° 0 mm 2 mps 564 mmHg 42%
    11:00 +14°C° 0 mm 2 mps 564 mmHg 41%
    12:00 +13°C° 0 mm 3 mps 564 mmHg 41%
    13:00 +13°C° 0 mm 3 mps 563 mmHg 47%
    14:00 +12°C° 0 mm 3 mps 563 mmHg 54%
    15:00 +11°C° 0 mm 3 mps 562 mmHg 60%
    16:00 +9°C° 0 mm 2 mps 561 mmHg 69%
    17:00 +8°C° 0 mm 2 mps 560 mmHg 79%
    18:00 +6°C° 0 mm 2 mps 560 mmHg 89%
    19:00 +5°C° 0 mm 2 mps 560 mmHg 87%
    20:00 +5°C° 0 mm 2 mps 560 mmHg 85%
    21:00 +5°C° 0 mm 2 mps 561 mmHg 84%
    22:00 +5°C° 0 mm 2 mps 561 mmHg 83%
    23:00 +4°C° 0 mm 2 mps 560 mmHg 82%
    Show more